Regional Weather Roundup
Issued by NWS

Home | Current Version | Previous Version | Graphics & Text | Print | Product List | Glossary On
Versions: 1 2 3 4 5 6 7 8 9 10 11 12 13 14 15 16 17 18 19 20 21 22 23 24 25 26 27 28 29 30 31 32 33 34 35 36 37 38 39 40 41 42 43 44 45 46 47 48 49 50
000
ASUS43 KMKX 291100
RWRWI

WISCONSIN REGIONAL WEATHER ROUNDUP
NATIONAL WEATHER SERVICE MILWAUKEE/SULLIVAN WI
600 AM CDT WED JUL 29 2015

NOTE: "FAIR" INDICATES FEW OR NO CLOUDS BELOW 12,000 FEET WITH NO
SIGNIFICANT WEATHER AND/OR OBSTRUCTIONS TO VISIBILITY.

WIZ001-002-006>008-014>016-023>028-291200-
NORTHWEST WISCONSIN

CITY           SKY/WX    TMP DP  RH WIND       PRES   REMARKS
SUPERIOR ARPT  CLEAR     63  51  65 SW13      29.73S
ASHLAND        CLEAR     67  50  54 SW13G25   29.75F
HAYWARD        CLEAR     67  49  52 SW13      29.81F
SIREN          CLEAR     66  50  56 W21G28    29.83S
CUMBERLAND     CLEAR     61  52  72 SW12      29.86F
RICE LAKE      CLEAR     63  54  70 S12       29.89S
CHETEK         CLEAR     62  55  78 S7        29.89F
LADYSMITH      PTCLDY    62  56  78 SW7       29.90S
EAU CLAIRE     NOT AVBL
MENOMONIE      CLEAR     65  53  65 SW10      29.91S
NEW RICHMOND   CLEAR     63  54  72 SW10      29.90S
OSCEOLA        CLEAR     67  49  53 SW14G22   29.91S
$$

WIZ003>005-009-010-017-018-291200-
NORTH CENTRAL WISCONSIN

CITY           SKY/WX    TMP DP  RH WIND       PRES   REMARKS
MANITOWISH WTR CLEAR     62  55  75 SW9       29.85F
ARBOR VITAE    CLEAR     64  53  67 SW8       29.87S
WOODRUFF       CLEAR     64  53  67 SW8       29.87S
RHINELANDER    PTCLDY    65  54  67 W9        29.90R
EAGLE RIVER    PTCLDY    64  51  64 SW10      29.86S
LAND O LAKES   PTCLDY    66  51  58 W7        29.85F
PHILLIPS       CLEAR     64  56  77 SW7       29.88S
TOMAHAWK       PTCLDY    63  54  72 CALM      29.90S
MEDFORD        PTCLDY    62  56  83 SW5       29.93R
MERRILL        NOT AVBL
$$

WIZ029-030-035-036-043>047-291200-
CENTRAL WISCONSIN

CITY           SKY/WX    TMP DP  RH WIND       PRES   REMARKS
WAUSAU         MOCLDY    68  57  68 W9        29.91R
MOSINEE        NOT AVBL
MARSHFIELD     MOCLDY    63  56  78 SW6       29.94R
STEVENS POINT  CLOUDY    70  57  63 W8        29.94R
WAUPACA        CLOUDY    77  58  51 W7        29.92R
WAUTOMA        NOT AVBL
WISC RAPIDS    CLOUDY    70  59  68 W8        29.95R
CAMP DOUGLAS   NOT AVBL
$$

WIZ011>013-019>022-031-037>040-048>050-291200-
NORTHEAST WISCONSIN

CITY           SKY/WX    TMP DP  RH WIND       PRES   REMARKS
ANTIGO         MOCLDY    67  57  70 W10G16    29.92R
SHAWANO        CLOUDY    76  64  66 W7        29.89R
OCONTO         CLOUDY    73  73 100 W9        29.84R
STURGEON BAY   CLOUDY    73  68  83 SW9       29.88R
GREEN BAY      CLOUDY    75  70  84 W9        29.88R
MANITOWOC      NOT AVBL
APPLETON       MOCLDY    73  61  64 W13G21    29.92R
CLINTONVILLE   CLOUDY    75  55  50 W8        29.89R
OSHKOSH        CLOUDY    76  65  68 W10       29.91R
$$

WIZ032>034-041-042-053>061-291200-
SOUTHWEST WISCONSIN

CITY           SKY/WX    TMP DP  RH WIND       PRES   REMARKS
LA CROSSE      MOCLDY    70  56  61 W12       29.97R
SPARTA         CLOUDY    67  59  75 W5        29.98R
VIROQUA        MOCLDY    67  61  81 W5        30.00S
BOSCOBEL       CLOUDY    73  65  75 W5        29.99R
PRAIRIE DU CHI CLOUDY    72  62  71 W5        29.99R
PLATTEVILLE    CLOUDY    69  66  90 N3        29.99S
$$

WIZ056-057-062-063-064-067-068-291200-
SOUTH CENTRAL WISCONSIN

CITY           SKY/WX    TMP DP  RH WIND       PRES   REMARKS
REEDSBURG      CLOUDY    73  67  83 W6        29.96R
BARABOO/DELLS  CLOUDY    74  65  74 W5        29.97R
LONE ROCK      NOT AVBL
MINERAL POINT  CLOUDY    70  68  94 W3        30.00S
MADISON        RAIN      70  66  87 VRB7      29.99R FOG
MIDDLETON      CLOUDY    73  67  81 CALM      29.98R
WATERTOWN      HVY RAIN  73  73 100 W6        29.94S
MONROE         CLOUDY    72  70  94 NW13      29.98R
JANESVILLE     MOCLDY    75  73  94 W9        29.95R
$$

WIZ051-052-058>065-066-070>072-291200-
SOUTHEAST WISCONSIN

CITY           SKY/WX    TMP DP  RH WIND       PRES   REMARKS
MILWAUKEE      LGT RAIN  77  72  84 W9        29.91R
WAUKESHA       LGT RAIN  73  72  94 NW12      29.94S FOG
MILWAUKEE/TIMM CLOUDY    75  70  83 W9        29.92S
RACINE         CLOUDY    76  71  85 W8        29.93S
BURLINGTON     CLOUDY    73  71  94 W6        29.94R
KENOSHA        CLOUDY    75  71  87 W7        29.92S
FOND DU LAC    CLOUDY    75  71  87 W6        29.92S
SHEBOYGAN      CLOUDY    75  71  87 W10       29.90R
WEST BEND      RAIN      73  70  88 W10G17    29.93R
JUNEAU         HVY RAIN  73  72  96 W8        29.95R
$$

LSZ147-162-291200-
LAKE SUPERIOR

STATION/POSITION TIME  TEMP    WIND        PRES    WAVE
                       AIR SEA DIR/SP/G            HT/PER
                 (UTC) (F)     (DEG/KT/KT) (MB)    (FT/S)
W MID LAKE BUOY  0950   67 62  210/ 19/ 21 1005.4F   3/ 4
DEVILS ISLAND    1000   70     220/ 23/ 27 1005.8F
PORT WING        1000   69     200/ 12/ 17 1006.8F
SAXON HARBOR     1040   69                 1007.5F
$$

LMZ867-665-643>646-291200-
LAKE MICHIGAN

STATION/POSITION TIME  TEMP    WIND        PRES    WAVE
                       AIR SEA DIR/SP/G            HT/PER
                 (UTC) (F)     (DEG/KT/KT) (MB)    (FT/S)
CHAMBERS ISLAND  1000   74     180/  3/ 11 1009.8F
S GREEN BAY BUOY 1030   76 75  230/ 14/ 19 1012.1F
N MID LAKE BUOY  0950   72 70  200/ 14/ 16 1009.6F   2/ 3
NORTHPORT PIER   1000   72     170/  2/  6 1009.8F
SISTER BAY       1044   75     230/  9/ 12   N/A
ALGOMA LAKESHORE 1012          220/  4/  6   N/A
KEWAUNEE LAKESHO 1000   67     210/  3/  7 1010.5F
SHEBOYGAN LAKESH 1000   75     240/  8/ 10 1011.8F
PORT WASHINGTON  1000   74     260/  4/  8 1012.9
ATWATER BUOY     1000   72     240/  6/  8 1014.0R
MILWAUKEE LAKESH 1000   77     260/  9/ 13   N/A
KENOSHA   LAKESH 1000   78     240/  8/ 11 1012.5S
$$

TC  - TEMPERATURE IN CELSIUS
VSB - VISIBILITY IN STATUTE MILES
WCI - WIND CHILL INDEX
HX  - HEAT INDEX



USA.gov is the U.S. government's official web portal to all federal, state and local government web resources and services.